Time,TemperatureF,DewpointF,PressureIn,WindDirection,WindDirectionDegrees,WindSpeedMPH,WindSpeedGustMPH,Humidity,HourlyPrecipIn,Conditions,Clouds,dailyrainin,SoftwareType,DateUTC
2013-06-26 00:22:00,77.0,74.0,30.08,ESE,108,1.0,3.0,92,99.99,,,-99.99,,2013-06-26 04:22:00,
2013-06-26 00:43:00,77.0,75.0,30.08,SE,134,2.0,6.0,94,99.99,,,-99.99,,2013-06-26 04:43:00,
2013-06-26 00:53:00,77.0,76.0,30.08,ESE,108,4.0,5.0,96,99.99,,,-99.99,,2013-06-26 04:53:00,
2013-06-26 01:34:00,76.0,76.0,30.06,SSE,149,2.0,4.0,100,99.99,,,-99.99,,2013-06-26 05:34:00,
2013-06-26 01:43:00,76.0,76.0,30.06,SE,128,1.0,3.0,100,99.99,,,-99.99,,2013-06-26 05:43:00,
2013-06-26 02:34:00,76.0,76.0,30.04,SSE,156,2.0,5.0,100,99.99,,,-99.99,,2013-06-26 06:34:00,
2013-06-26 02:43:00,76.0,76.0,30.05,SE,135,0.0,3.0,100,99.99,,,-99.99,,2013-06-26 06:43:00,
2013-06-26 02:53:00,76.0,76.0,30.04,SE,136,0.0,2.0,100,99.99,,,-99.99,,2013-06-26 06:53:00,
2013-06-26 03:01:00,75.0,75.0,30.03,SSE,152,0.0,3.0,100,99.99,,,-99.99,,2013-06-26 07:01:00,
2013-06-26 03:11:00,75.0,75.0,30.03,SSE,155,1.0,3.0,100,99.99,,,-99.99,,2013-06-26 07:11:00,
2013-06-26 03:43:00,75.0,75.0,30.03,ESE,113,2.0,4.0,100,99.99,,,-99.99,,2013-06-26 07:43:00,
2013-06-26 03:53:00,75.0,75.0,30.03,SSE,158,1.0,3.0,100,99.99,,,-99.99,,2013-06-26 07:53:00,
2013-06-26 04:01:00,75.0,75.0,30.02,SE,139,2.0,5.0,100,99.99,,,-99.99,,2013-06-26 08:01:00,
2013-06-26 04:11:00,75.0,75.0,30.02,SE,125,1.0,3.0,100,99.99,,,-99.99,,2013-06-26 08:11:00,
2013-06-26 04:33:00,75.0,75.0,30.02,North,0,0.0,0.0,100,99.99,,,-99.99,,2013-06-26 08:33:00,
2013-06-26 04:42:00,74.0,74.0,30.02,North,0,0.0,0.0,100,99.99,,,-99.99,,2013-06-26 08:42:00,
2013-06-26 05:01:00,74.0,74.0,30.02,SE,135,3.0,4.0,100,99.99,,,-99.99,,2013-06-26 09:01:00,
2013-06-26 05:43:00,74.0,74.0,30.03,South,172,1.0,3.0,100,99.99,,,-99.99,,2013-06-26 09:43:00,
2013-06-26 07:44:00,75.0,75.0,30.07,North,0,0.0,0.0,100,99.99,,,-99.99,,2013-06-26 11:44:00,
2013-06-26 07:52:00,75.0,75.0,30.07,SSE,160,0.0,2.0,100,99.99,,,-99.99,,2013-06-26 11:52:00,
2013-06-26 08:22:00,76.0,76.0,30.07,North,0,0.0,0.0,100,99.99,,,-99.99,,2013-06-26 12:22:00,
2013-06-26 08:42:00,78.0,78.0,30.08,North,0,0.0,0.0,100,99.99,,,-99.99,,2013-06-26 12:42:00,
2013-06-26 08:52:00,78.0,78.0,30.08,North,0,0.0,0.0,100,99.99,,,-99.99,,2013-06-26 12:52:00,
2013-06-26 09:34:00,82.0,79.0,30.07,SSW,211,5.0,8.0,90,99.99,,,-99.99,,2013-06-26 13:34:00,
2013-06-26 10:02:00,84.0,74.0,30.07,SSE,156,3.0,7.0,73,99.99,,,-99.99,,2013-06-26 14:02:00,
2013-06-26 10:34:00,87.0,74.0,30.07,SSW,198,0.0,2.0,65,99.99,,,-99.99,,2013-06-26 14:34:00,
2013-06-26 10:42:00,87.0,73.0,30.06,WSW,242,3.0,5.0,63,99.99,,,-99.99,,2013-06-26 14:42:00,
2013-06-26 10:53:00,87.0,73.0,30.07,WSW,246,2.0,5.0,63,99.99,,,-99.99,,2013-06-26 14:53:00,
2013-06-26 11:02:00,88.0,74.0,30.07,SSW,194,3.0,6.0,63,99.99,,,-99.99,,2013-06-26 15:02:00,
2013-06-26 11:11:00,89.0,73.0,30.07,SSW,212,1.0,5.0,60,99.99,,,-99.99,,2013-06-26 15:11:00,
2013-06-26 11:34:00,91.0,73.0,30.07,North,0,0.0,0.0,55,99.99,,,-99.99,,2013-06-26 15:34:00,
2013-06-26 11:44:00,91.0,72.0,30.07,North,0,0.0,0.0,54,99.99,,,-99.99,,2013-06-26 15:44:00,
2013-06-26 12:34:00,89.0,72.0,30.06,NNW,345,2.0,6.0,57,99.99,,,-99.99,,2013-06-26 16:34:00,
2013-06-26 13:43:00,84.0,76.0,30.08,SW,222,8.0,11.0,77,99.99,,,-99.99,,2013-06-26 17:43:00,
2013-06-26 13:52:00,82.0,76.0,30.08,SSW,208,10.0,16.0,82,99.99,,,-99.99,,2013-06-26 17:52:00,
2013-06-26 14:43:00,80.0,76.0,30.04,SE,132,4.0,9.0,89,99.99,,,-99.99,,2013-06-26 18:43:00,
2013-06-26 16:01:00,77.0,71.0,30.06,SE,139,9.0,15.0,81,99.99,,,-99.99,,2013-06-26 20:01:00,
2013-06-26 16:34:00,75.0,71.0,30.06,South,170,4.0,6.0,88,99.99,,,-99.99,,2013-06-26 20:34:00,
2013-06-26 16:43:00,75.0,71.0,30.07,SSW,205,6.0,10.0,88,99.99,,,-99.99,,2013-06-26 20:43:00,
2013-06-26 16:52:00,75.0,71.0,30.07,SW,215,7.0,10.0,88,99.99,,,-99.99,,2013-06-26 20:52:00,
2013-06-26 17:33:00,75.0,74.0,30.10,WSW,240,7.0,10.0,97,99.99,,,-99.99,,2013-06-26 21:33:00,
2013-06-26 17:43:00,74.0,74.0,30.07,WSW,249,10.0,17.0,100,99.99,,,-99.99,,2013-06-26 21:43:00,
2013-06-26 18:34:00,73.0,73.0,30.06,WNW,283,3.0,7.0,100,99.99,,,-99.99,,2013-06-26 22:34:00,
2013-06-26 18:43:00,73.0,73.0,30.05,WSW,238,3.0,6.0,100,99.99,,,-99.99,,2013-06-26 22:43:00,
2013-06-26 18:52:00,73.0,73.0,30.04,SW,214,3.0,5.0,100,99.99,,,-99.99,,2013-06-26 22:52:00,
2013-06-26 19:11:00,73.0,73.0,30.00,SSW,195,7.0,10.0,100,99.99,,,-99.99,,2013-06-26 23:11:00,
2013-06-26 19:34:00,73.0,73.0,30.02,NNE,21,6.0,13.0,100,99.99,,,-99.99,,2013-06-26 23:34:00,
2013-06-26 19:43:00,73.0,73.0,30.02,NE,49,4.0,12.0,100,99.99,,,-99.99,,2013-06-26 23:43:00,
2013-06-26 19:52:00,73.0,73.0,30.02,ENE,63,2.0,6.0,100,99.99,,,-99.99,,2013-06-26 23:52:00,
2013-06-26 20:01:00,73.0,73.0,30.01,North,0,0.0,0.0,100,99.99,,,-99.99,,2013-06-27 00:01:00,
2013-06-26 20:12:00,73.0,73.0,30.01,North,0,0.0,0.0,100,99.99,,,-99.99,,2013-06-27 00:12:00,
2013-06-26 20:33:00,73.0,73.0,30.03,WNW,295,1.0,4.0,100,99.99,,,-99.99,,2013-06-27 00:33:00,
2013-06-26 20:42:00,73.0,73.0,30.04,WNW,291,3.0,5.0,100,99.99,,,-99.99,,2013-06-27 00:42:00,
2013-06-26 20:53:00,73.0,73.0,30.04,WNW,285,4.0,6.0,100,99.99,,,-99.99,,2013-06-27 00:53:00,
2013-06-26 21:01:00,73.0,73.0,30.04,WNW,285,4.0,6.0,100,99.99,,,-99.99,,2013-06-27 01:01:00,
2013-06-26 21:11:00,73.0,73.0,30.04,West,264,0.0,1.0,100,99.99,,,-99.99,,2013-06-27 01:11:00,
2013-06-26 21:21:00,73.0,73.0,30.04,West,264,0.0,1.0,100,99.99,,,-99.99,,2013-06-27 01:21:00,
2013-06-26 21:32:00,73.0,73.0,30.05,North,0,0.0,0.0,100,99.99,,,-99.99,,2013-06-27 01:32:00,
2013-06-26 21:43:00,74.0,74.0,30.06,North,0,0.0,0.0,100,99.99,,,-99.99,,2013-06-27 01:43:00,
2013-06-26 21:53:00,74.0,74.0,30.06,North,0,0.0,0.0,100,99.99,,,-99.99,,2013-06-27 01:53:00,
2013-06-26 22:01:00,74.0,74.0,30.06,North,0,0.0,0.0,100,99.99,,,-99.99,,2013-06-27 02:01:00,
2013-06-26 22:11:00,74.0,74.0,30.06,North,0,0.0,0.0,100,99.99,,,-99.99,,2013-06-27 02:11:00,
2013-06-26 22:22:00,73.0,73.0,30.06,North,0,0.0,0.0,100,99.99,,,-99.99,,2013-06-27 02:22:00,
2013-06-26 22:42:00,73.0,73.0,30.06,North,0,0.0,0.0,100,99.99,,,-99.99,,2013-06-27 02:42:00,
2013-06-26 22:52:00,73.0,73.0,30.05,SSW,194,2.0,5.0,100,99.99,,,-99.99,,2013-06-27 02:52:00,
2013-06-26 23:02:00,73.0,73.0,30.05,SSW,195,2.0,4.0,100,99.99,,,-99.99,,2013-06-27 03:02:00,
2013-06-26 23:11:00,73.0,73.0,30.05,North,0,0.0,0.0,100,99.99,,,-99.99,,2013-06-27 03:11:00,
2013-06-26 23:21:00,73.0,73.0,30.05,North,0,0.0,0.0,100,99.99,,,-99.99,,2013-06-27 03:21:00,
2013-06-26 23:42:00,73.0,73.0,30.04,SSW,201,5.0,7.0,100,99.99,,,-99.99,,2013-06-27 03:42:00,